Regional Weather Roundup
Issued by NWS

Home | Current Version | Previous Version | Graphics & Text | Print | Product List | Glossary On
Versions: 1 2 3 4 5 6 7 8 9 10 11 12 13 14 15 16 17 18 19 20 21 22 23 24 25 26 27 28 29 30 31 32 33 34 35 36 37 38 39 40 41 42 43 44 45 46 47 48 49
000
ASUS43 KDMX 030507
RWRIA

WEATHER ROUNDUP FOR IOWA
NATIONAL WEATHER SERVICE DES MOINES IA
1200 AM CDT THU SEP 03 2015

NOTE: "FAIR" INDICATES FEW OR NO CLOUDS BELOW 12,000 FEET WITH NO
SIGNIFICANT WEATHER AND/OR OBSTRUCTIONS TO VISIBILITY.

* - THESE STATIONS ARE NOT NWS STATIONS...THUS NOT UNDER NWS
QUALITY CONTROL.  THEY ALSO DO NOT REPORT WEATHER SUCH
AS PRECIPITATION OR FOG.

IAZ001>003-012>014-020>022-031>034-043>046-030600-
   NORTHWEST IOWA

CITY           SKY/WX    TMP DP  RH WIND       PRES   REMARKS
CARROLL *      CLEAR     70  70 100 S7        29.89F
CHEROKEE *     CLEAR     72  72 100 CALM      29.87F
DENISON *      CLEAR     75  70  83 S10G17    29.87S
LE MARS *      CLEAR     73  72  94 SE6       29.86F
ORANGE CITY *  CLEAR     73  72  94 SE3       29.87S
SHELDON *      CLEAR     70  70 100 E5        29.86S
SIOUX CITY     CLEAR     72  68  87 SE7       29.84S
SPENCER        CLEAR     72  69  90 SE3       29.88F FOG
STORM LAKE *   CLEAR     72  70  94 S7        29.90F
$$

IAZ055>058-069>071-079>083-090>094-030600-
   SOUTHWEST IOWA

CITY           SKY/WX    TMP DP  RH WIND       PRES   REMARKS
ATLANTIC *     CLEAR     75  72  88 S7        29.91R
AUDUBON *      CLEAR     73  70  88 S6        29.92S
CLARINDA *     CLEAR     75  70  83 S6        29.93S
COUNCIL BLFS *   N/A     75  70  83 S8        29.89S
CRESTON *      CLEAR     73  70  88 S8        29.95R
LAMONI         CLEAR     75  69  81 S8        29.94F
RED OAK *      PTCLDY    75  70  83 S6        29.90S
SHENANDOAH *   CLEAR     75  70  83 S8        29.91R
$$

IAZ047>049-059>061-072>074-084-030600-
   CENTRAL IOWA

CITY           SKY/WX    TMP DP  RH WIND       PRES   REMARKS
AMES           CLEAR     70  69  97 SE5       29.91F
ANKENY *       PTCLDY    75  72  88 S5        29.91F
CHARITON *     CLEAR     73  70  88 S8        29.94S
DES MOINES     PTCLDY    76  70  82 S8        29.91F
GRINNELL*      CLEAR     73  68  83 S7        29.94S
KNOXVILLE *    CLEAR     75  68  78 S8        29.92S
MARSHALLTOWN   CLEAR     74  69  85 S6        29.92S
PELLA *        CLEAR     73  72  94 SE3       29.94S
PERRY *          N/A     72  70  94 S5        29.90F
$$

IAZ004>006-015-016-023>025-035-036-030600-
   NORTH CENTRAL IOWA

CITY           SKY/WX    TMP DP  RH WIND       PRES   REMARKS
ALGONA *       CLEAR     72  70  94 S9        29.90S
CLARION *      CLEAR     70  68  94 S7        29.91S
ESTHERVILLE    CLEAR     69  68  96 S6        29.89S
FORT DODGE *   CLEAR     73  66  78 S7        29.90F
MASON CITY     CLEAR     69  67  93 S3        29.93R
FOREST CITY *  CLEAR     68  68 100 CALM      29.92R
IOWA FALLS *     N/A     72  68  88 CALM      29.93S
$$

IAZ007>011-017>019-026>030-037>042-050>054-066-030600-
   NORTHEAST IOWA

CITY           SKY/WX    TMP DP  RH WIND       PRES   REMARKS
CEDAR RAPIDS   CLEAR     71  71 100 S6        29.94S
CHARLES CITY * CLEAR     70  70 100 S6        29.93S
CLINTON *      CLEAR     72  68  88 S3        29.98S
DECORAH *      CLEAR     72  70  94 S7G13     29.93S
DUBUQUE        CLEAR     71  68  90 S8        29.97R
MONTICELLO *   CLEAR     70  68  94 CALM      29.95R
OELWEIN *        N/A     70  70 100 S5        29.94S
WATERLOO       CLEAR     73  69  87 S8        29.91F
$$

IAZ064-065-067-068-078-030600-
   EAST CENTRAL IOWA

CITY           SKY/WX    TMP DP  RH WIND       PRES   REMARKS
DAVENPORT      PTCLDY    75  67  76 S7        29.96S
IOWA CITY      CLEAR     72  69  90 S3        29.95F
MT. PLEASANT * MOCLDY    75  66  73 S5        29.96S
MUSCATINE *      N/A     73  68  83 S3        29.96R
QUAD CITIES    PTCLDY    75  67  76 SW5       29.95F
$$

IAZ062-063-075>077-085>089-095>099-030600-
   SOUTHEAST IOWA

CITY           SKY/WX    TMP DP  RH WIND       PRES   REMARKS
BURLINGTON     CLOUDY    75  69  81 S6        29.96S
FAIRFIELD *    CLOUDY    75  68  78 S5        29.96R
FORT MADISON * PTCLDY    73  70  88 S6        29.97S
KEOKUK *       MOCLDY    77  68  73 S3        29.96S
OSKALOOSA *      N/A     72  68  88 S5        29.95S
CENTERVILLE *  CLEAR     73  70  88 S8        29.97S
OTTUMWA        PTCLDY    73  70  90 S8        29.93S
WASHINGTON *     N/A    N/A N/A N/A MISG        N/A
$$

ABBREVIATIONS USED IN REMARKS
   TC - TEMPERATURES IN CELSIUS
  WCI - WIND CHILL INDEX
   HX - HEAT INDEX
  VSB - VISIBILITY
$$



USA.gov is the U.S. government's official web portal to all federal, state and local government web resources and services.